Regional Weather Roundup
Issued by NWS

Home | Current Version | Previous Version | Text Only | Print | Product List | Glossary Off
Versions: 1 2 3 4 5 6 7 8 9 10 11 12 13 14 15 16 17 18 19 20 21 22 23 24 25 26 27 28 29 30 31 32 33 34 35 36 37 38 39 40 41 42 43 44 45 46 47 48 49 50

771
ASUS45 KBOI 231710
RWRID

IDAHO REGIONAL WEATHER ROUNDUP
NATIONAL WEATHER SERVICE BOISE ID
1100 AM MDT SAT SEP 23 2017

NOTE: "FAIR" INDICATES FEW OR NO CLOUDS BELOW 12000 FEET
WITH NO SIGNIFICANT WEATHER AND/OR OBSTRUCTIONS TO VISIBILITY

IDZ012-014-231800-
SOUTHWEST IDAHO


CITY           SKY/WX    TMP DP  RH WIND       PRES   REMARKS
BOISE          MOSUNNY   48  40  73 W3        30.08R
CALDWELL       SUNNY     48  41  76 NW3       30.10R
MOUNTAIN HOME  SUNNY     46  46 100 E3        30.07S
$$

IDZ016-017-231800-
SOUTHCENTRAL IDAHO


CITY           SKY/WX    TMP DP  RH WIND       PRES   REMARKS
BURLEY         PTSUNNY   45  37  73 NW5       30.04S
JEROME         LGT RAIN  43  39  86 W6        30.06S
TWIN FALLS     CLOUDY    45  38  76 W8        30.06S
$$

IDZ019>023-231800-
SOUTHEAST IDAHO


CITY           SKY/WX    TMP DP  RH WIND       PRES   REMARKS
IDAHO FALLS    CLOUDY    41  36  82 CALM      30.06S
POCATELLO      PTSUNNY   41  37  86 CALM      30.06R
REXBURG        MOSUNNY   42  34  73 VRB3      30.05S
$$

IDZ006-010-011-018-031-032-231800-
CENTRAL IDAHO MOUNTAINS


CITY           SKY/WX    TMP DP  RH WIND       PRES   REMARKS
MCCALL         SUNNY     42  32  67 CALM      30.04S
HAILEY         MOSUNNY   43  30  61 CALM      30.05F
STANLEY          N/A     35  28  75 CALM      30.07R
SALMON         CLOUDY    44  32  62 N6        30.09S
CHALLIS        CLOUDY    41  33  73 CALM      30.06S
$$

IDZ002-004-006-007-026-231800-
NORTHERN IDAHO


CITY           SKY/WX    TMP DP  RH WIND       PRES   REMARKS
LEWISTON       CLOUDY    50  44  80 E7        30.12R
LOWELL           N/A     50  37  61 VRB3      30.14F
COEUR D`ALENE  CLOUDY    49  40  71 S9        30.10R
MULLAN PASS    CLOUDY    34  30  85 CALM      30.07R
$$




USA.gov is the U.S. government's official web portal to all federal, state and local government web resources and services.